MDT,Max TemperatureF,Mean TemperatureF,Min TemperatureF,Max Dew PointF,MeanDew PointF,Min DewpointF,Max Humidity, Mean Humidity, Min Humidity, Max Sea Level PressureIn, Mean Sea Level PressureIn, Min Sea Level PressureIn, Max VisibilityMiles, Mean VisibilityMiles, Min VisibilityMiles, Max Wind SpeedMPH, Mean Wind SpeedMPH, Max Gust SpeedMPH,PrecipitationIn, CloudCover, Events, WindDirDegrees
2013-6-1,97,81,65,34,15,8,25,15,5,29.78,29.73,29.68,10,10,10,22,10,28,0.00,0,,73
2013-6-2,98,83,67,50,44,27,38,24,9,29.96,29.75,29.57,10,8,1,25,11,37,0.00,2,,128
2013-6-3,98,81,63,52,36,11,63,34,5,29.99,29.75,29.63,10,9,4,24,10,30,0.00,1,,326
2013-6-4,97,75,53,34,24,14,22,15,7,29.80,29.73,29.68,10,10,5,24,9,35,0.00,0,,244
2013-6-5,96,79,62,30,21,11,26,15,4,29.78,29.71,29.64,10,10,10,23,10,30,0.00,0,,274
2013-6-6,95,75,55,40,24,10,29,18,6,29.78,29.72,29.65,10,10,8,16,7,22,0.00,0,,109
2013-6-7,94,78,61,55,43,34,57,38,18,29.98,29.80,29.65,10,7,0,39,8,49,T,2,Rain-Thunderstorm,26
2013-6-8,102,80,60,48,37,21,62,30,7,29.95,29.71,29.54,10,9,5,23,7,32,0.00,3,,303
2013-6-9,103,87,70,34,26,23,19,13,6,29.74,29.68,29.62,10,10,10,16,8,29,0.00,0,,260
2013-6-10,104,84,64,45,28,18,33,19,5,29.81,29.73,29.65,10,10,10,14,4,18,0.00,0,,253
2013-6-11,106,84,64,37,25,19,24,11,5,29.90,29.73,29.64,10,10,10,16,7,22,0.00,0,,292
2013-6-12,107,86,66,33,23,17,20,10,4,29.79,29.72,29.65,10,10,9,16,6,29,0.00,0,,93
2013-6-13,102,88,75,55,46,36,43,25,11,30.02,29.77,29.63,10,9,2,21,9,31,0.00,2,Rain-Thunderstorm,108
2013-6-14,99,83,67,54,47,34,53,32,11,29.90,29.74,29.62,10,10,2,14,5,23,0.00,0,Rain,72
2013-6-15,100,84,68,51,43,34,53,32,10,29.99,29.80,29.68,10,9,1,16,9,21,0.00,1,,276
2013-6-16,96,86,72,45,41,37,35,25,14,29.86,29.79,29.70,10,10,10,12,6,18,0.00,0,,341
2013-6-17,100,84,68,48,38,22,47,28,9,29.83,29.75,29.68,10,10,10,21,7,28,0.00,0,,257
2013-6-18,99,80,59,54,30,12,53,30,7,29.83,29.74,29.65,10,10,8,17,7,26,0.00,0,,252
2013-6-19,102,82,61,32,20,7,16,10,5,29.89,29.68,29.59,10,10,4,21,8,36,0.00,0,,246
2013-6-20,102,82,63,33,21,15,20,11,5,29.97,29.71,29.63,10,10,6,21,6,34,0.00,0,,262
2013-6-21,100,82,64,49,30,11,50,19,5,29.81,29.74,29.66,10,10,8,21,8,33,0.00,0,,280
2013-6-22,100,80,59,34,21,13,16,12,8,29.80,29.73,29.65,10,10,8,30,6,39,0.00,0,,257
2013-6-23,98,77,57,30,23,13,28,18,8,29.78,29.71,29.61,10,10,7,28,8,40,0.00,0,,254
2013-6-24,98,80,61,34,30,24,30,21,11,29.80,29.72,29.66,10,10,9,26,10,37,0.00,0,,257
2013-6-25,98,82,66,29,21,13,20,13,5,29.84,29.78,29.73,10,10,10,23,11,31,0.00,0,,258
2013-6-26,102,82,61,20,15,11,15,10,5,29.88,29.82,29.77,10,10,10,25,11,31,0.00,0,,271
2013-6-27,107,84,61,24,19,8,15,10,5,29.91,29.82,29.74,10,10,5,21,9,29,0.00,0,,249
2013-6-28,101,83,64,37,31,23,22,16,10,29.93,29.85,29.78,10,10,10,21,8,28,0.00,0,,108
2013-6-29,102,86,70,44,38,29,35,21,7,29.89,29.82,29.71,10,10,5,25,7,35,0.00,0,,85
2013-6-30,100,87,73,54,45,41,39,27,15,30.09,29.78,29.64,10,9,5,31,9,38,T,1,Rain-Thunderstorm,64